WESTFORD NEEDLES, 629

Orbit data source: Space-Track

WESTFORD NEEDLES, 629 is space debris in LEO originally from a launch on Thu, 09 May 1963 UTC via an ATLAS AGENA B launch vehicle from the Air Force Western Test Range (AFWTR). Debris objects in space refer to the collection of defunct objects orbiting the Earth. Examples of debris include non-operational satellites, rocket bodies, and fragments generated from explosions, collisions, or faulty payload assembly.

Loading next visibility...
Identifier
629, 1963-014G
Orbit
LEO
Country
Flag of USUS
Related business
Manufacturer
MIT-LL
Mission
Spacecraft
Bus & Motor
Unknown
Mass
8 kg wet, 8 kg dry
Launch date (UTC)
1963-05-09 (63 years ago)
Launch vehicle
ATLAS AGENA B
Launch site
Air Force Western Test Range (AFWTR)
Object type
Payload
Rocket body
Debris
Shape & HBR
Unknown shape, 1.1 m
Radar Cross Section
Large (>1 m²)

Expand to show TLE details & history
Last TLE update: 1 day ago

TLE from 1 day ago
0 WESTFORD NEEDLES
1 00629U 63014G   26201.90674014  .00000009  00000-0  29476-2 0  9992
2 00629  87.3538 188.2443 0027178 311.7373  48.1159  8.65563753997116
Epoch: 2026-07-20T21:45Z
TLE epoch observation values (Epoch: 2026-07-20T21:45:42.348Z)
Latitude
0.00006°
Longitude
-76.86621°
Altitude
3,625.941 km
Speed
6.319 km/s
True Right ascension
12h 32m 58s
True Declination
0° 00' 00"
Sunlit
Object was in daylight at epoch
Visualization orbit readout
Latitude
Unknown
Longitude
Unknown
Altitude
Unknown
Speed
Unknown
Apparent Right ascension
Unknown
Apparent Declination
Unknown
Sunlit
N/A
Visualization observer readout
Local Sidereal Time
17:17:49
Azimuth
Unknown
Elevation
Unknown
Doppler factor
Unknown
Orbital elements
Apogee altitude
3,666.945 km
Perigee altitude
3,612.492 km
Semi-major axis
10,017.855 km
Eccentricity
0.00272
Inclination
87.3538°
RAAN
188.2443°
Arg. of periapsis
311.7373°
True anomaly
48.34829°
Mean anomaly
48.1159°
Eccentric anomaly
48.23204°
Mean motion
2.16462 °/min
Orbital period
166.31 mins
BSTAR
0.0029476

Documentation

Showing up to 5 results
|